Starlink 31461

operational
NORAD ID: 59370 Int'l Des: 2024-060 Owner: SPXS Country: US Constellation: starlink
LEOCIRCULAR

About Starlink 31461

Description loading...

Live Position

Loading 3D Globe...

Upcoming Passes

Altitude History

Altitude vs Time

uPlot chart will show altitude changes over time

Two-Line Element Set

1 59370U 24060Y 26061.33736094 -.00000064 00000-0 71968-5 0 9993
2 59370 43.0005 290.5400 0000825 269.8338 90.2419 15.27574612109007
Epoch: Mar 2, 2026 • Age: 26 hours

Current Status

Altitude 483.4 km
Velocity 7.63 km/s
Sub-Earth Point -3.82°S, 83.01°W
Launch Date Mar 31, 2024
Age 1.9 years
Type internet

Technical Details

Classification Payload
Mass 730.00 kg
Dry Mass 700.00 kg
Total Mass 730.00 kg
Length 0.30 m
Diameter 4.10 m
Span 29.00 m
Shape Box + pan
Manufacturer SPXS
Bus Type Starlink V2M
Phase Status In Orbit
Owner/State SPXS/US

Large Constellations

Loading constellations...